Location: Kaikalui
(16.5250°N, 81.1500°E)
Time: 10:28:38
(UTC+00:00)

Atlas Centaur 2 - Pass Details

Date: 14 April 2026
Orbit: 456 x 1246 km, 30.4° (Epoch: 20 May)

Event Time Altitude Azimuth Distance (km) Brightness Sun altitude
Rises 14:56:14 0° 294° (WNW) 3,277 6.5 -29.8°
Reaches altitude 10° 14:58:31 10° 292° (WNW) 2,462 5.5 -30.3°
Enters shadow 15:04:04 70° 239° (WSW) 1,034 2.6 -31.5°
